Terminal Aerodrome Forecast
Issued by NWS

Home | Current Version | Previous Version | Text Only | Print | Product List | Glossary On
Versions: 1 2 3 4 5 6 7 8 9 10 11 12 13 14 15 16 17 18 19 20 21 22 23 24 25 26 27 28 29 30 31 32 33 34 35 36 37 38 39 40 41 42 43 44 45 46 47 48 49 50
819
FTUS41 KCTP 302131 AAB
TAFBFD
TAF AMD
KBFD 302131Z 3022/0118 11010G20KT 5SM BR BKN009 OVC015
     FM010300 10008KT 1 1/2SM -DZ BR OVC003
     FM011600 12008KT 5SM BR BKN009 OVC015=

USA.gov is the U.S. government's official web portal to all federal, state and local government web resources and services.